Regional Weather Roundup
Issued by NWS

Home | Current Version | Previous Version | Graphics & Text | Print | Product List | Glossary On
Versions: 1 2 3 4 5 6 7 8 9 10 11 12 13 14 15 16 17 18 19 20 21 22 23 24 25 26 27 28 29 30 31 32 33 34 35 36 37 38 39 40 41 42 43 44 45 46 47 48 49 50
000
ASUS43 KBIS 011710
RWRND

NORTH DAKOTA REGIONAL WEATHER ROUNDUP
NATIONAL WEATHER SERVICE BISMARCK ND
1200 PM CDT TUE SEP 01 2015

NOTE: "FAIR" INDICATES FEW OR NO CLOUDS BELOW 12,000 FEET WITH NO
SIGNIFICANT WEATHER AND/OR OBSTRUCTIONS TO VISIBILITY.


NDZ001>003-009>011-017-011800-
NORTHWEST NORTH DAKOTA

CITY           SKY/WX    TMP DP  RH WIND       PRES   REMARKS
WILLISTON      SUNNY     77  56  48 S5        29.81F
MINOT          SUNNY     80  55  42 SW12      29.83S
$$

NDZ018>021-031>035-040>046-011800-
SOUTHWEST NORTH DAKOTA

CITY           SKY/WX    TMP DP  RH WIND       PRES   REMARKS
BISMARCK       SUNNY     79  60  52 S13       29.86F
DICKINSON      SUNNY     80  58  46 SE13      29.84F
GARRISON         N/A     76  57  51 VRB5      29.85S
HETTINGER ARPT SUNNY     78  60  53 SE12G21   29.87S
$$

NDZ004>008-012>016-024-026-027-054-011800-
NORTHEAST NORTH DAKOTA

CITY           SKY/WX    TMP DP  RH WIND       PRES   REMARKS
GRAND FORKS    MOSUNNY   80  55  42 SW10      29.85F
GRND FRKS AFB  SUNNY     82  55  39 SW9       29.86S
DEVILS LAKE    SUNNY     77  55  47 SW8       29.86S
$$

NDZ022-023-025-028>030-036>039-047>053-011800-
SOUTHEAST NORTH DAKOTA

CITY           SKY/WX    TMP DP  RH WIND       PRES   REMARKS
FARGO          SUNNY     82  56  40 SE7       29.87S
JAMESTOWN      SUNNY     80  58  46 S13       29.88S
$$




USA.gov is the U.S. government's official web portal to all federal, state and local government web resources and services.